www.pogodaiklimat.ru

Погода и климат >> Архив погоды >> Монголия >> Баянбулаг


ПОГОДА в Баянбулаге

  • Прогноз погоды в Баянбулаге
  • Монитор погоды в Баянбулаге

АРХИВ ПОГОДЫ в Баянбулаге

Время (UTC), дата Ветер
(напр.,м/с)
 
Видим.   Явления Облачность Т
(С)
Тd
(С)
f
(%)
Тe
(С)
Тes
(С)
Комфортность P
(гПа)
Po
(гПа)
Тmin
(С)
Tmax
(С)
R
(мм)
R24
(мм)
S
(см)
15 12.08 В 2 50 км ясно +8.2 +0.9 60 +7 +7 1017.0 773.8
18 12.08 СВ 3 50 км ясно +5.8 -8.4 35 +3 +3 773.1
21 12.08 В 3 50 км ясно +5.0 -7.4 40 +2 +2 773.1
00 13.08 штиль 0 50 км ясно +7.8 -4.7 41 +8 +10 773.6 +4.9
03 13.08 штиль 0 50 км ясно +16.1 -7.1 20 +16 +31 опасность
простуды
1010.1 773.8
06 13.08 ЮЗ 4 50 км 1/0 2000 м
[Ac lent]
+20.1 -6.4 16 +20 +29 1005.7 773.2
09 13.08 З 5 50 км 5/3 1000 м
[Cu hum Ci fib]
+21.8 -7.1 14 +20 +23 772.5
12 13.08 СЗ 7 50 км ясно +19.4 -3.0 22 +19 +19 1003.3 771.4 +22.0
15 13.08 С 1 50 км ясно +13.0 -1.6 36 +14 +14 1010.8 772.7
18 13.08 В 4 50 км ясно +8.7 -0.6 52 +6 +6 1015.4 773.0
21 13.08 В 2 50 км ясно +5.0 -0.6 67 +3 +3 1019.6 773.4
00 14.08 штиль 0 50 км ясно +7.6 +1.6 66 +7 +9 1017.8 774.0 +2.4
03 14.08 штиль 0 50 км 1/1 600 м
[Cu hum]
+17.1 +1.7 35 +17 +30 опасность
простуды
773.8
06 14.08 З 7 50 км 5/5 600 м
[Cu hum]
+21.4 -0.9 22 +21 +23 комфорт 1002.9 772.5
09 14.08 СЗ 8 50 км 1/1 1000 м
[Cu hum]
+21.8 -2.5 19 +21 +22 комфорт 1001.8 772.0
12 14.08 СЗ 6 50 км 4/0 2000 м
[Ac lent Ci fib]
+19.5 -3.3 21 +19 +19 1004.0 771.5 +22.3
15 14.08 З 3 50 км 4/0 2000 м
[Ac lent Ci fib]
+14.0 -0.6 37 +13 +13 1010.9 773.4
18 14.08 С 4 н/о 5/0 2000 м
[Ac lent Ci]
+10.9 -0.9 44 +9 +9 1014.7 774.1
21 14.08 Ю 1 н/о 5/0 2000 м
[Ac lent Ci fib]
+6.7 -0.3 61 +6 +6 1019.1 774.3
00 15.08 З 2 50 км 6/0 2000 м
[Ac lent Cc]
+7.3 +3.0 74 +5 +7 1019.9 775.4 +4.2
03 15.08 С 3 50 км 9/0
[Cs]
+14.8 -5.0 25 +14 +22 1013.3 775.3
06 15.08 ЮЗ 3 50 км 9/0
[Cs]
+15.8 -2.5 28 +16 +26 1011.4 774.6
09 15.08 З 4 50 км 8/0 2000 м
[Ac lent Cc]
+20.8 -6.0 16 +20 +23 1006.6 774.4
12 15.08 СЗ 2 50 км 6/0 2000 м
[Ac As Ci fib]
+20.3 -7.4 15 +20 +21 1006.4 773.9 +20.8
15 15.08 Ю 4 н/о 6/0 2000 м
[Ac lent Ci fib]
+14.8 -0.6 35 +14 +14 1011.5 774.5
18 15.08 СВ 1 н/о 8/0 2000 м
[Ac lent Ci fib]
+10.6 -0.2 47 +11 +11 1015.7 774.7
21 15.08 С 3 н/о 9/8 600 м
[Sc Ac lent]
+7.5 +1.3 65 +5 +5 1019.4 774.9
00 16.08 СВ 2 50 км 9/5 2000 м
[Sc Ac lent]
+9.2 +2.1 61 +8 +8 1018.1 775.1 +6.9
03 16.08 штиль 0 50 км ясно +14.1 -5.0 26 +14 +29 опасность
простуды
1013.0 774.9
06 16.08 З 8 50 км 9/0 2000 м
[Ac As]
+16.5 +5.1 47 +15 +16 1008.9 773.7
09 16.08 З 5 50 км 9/0 2000 м
[Ac As]
+15.9 +4.5 47 +15 +16 1009.2 773.5
12 16.08 З 4 50 км 9/0 2000 м
[Ac As]
+16.1 +4.1 45 +15 +15 773.5 +16.5
15 16.08 штиль 0 н/о 4/0 2000 м
[Ac lent]
+10.6 +5.5 71 +10 +10 1013.9 773.3
18 16.08 штиль 0 50 км 1/0 2000 м
[Ac lent]
+6.2 +4.0 86 +5 +5 1018.3 773.3
21 16.08 СЗ 2 50 км ясно +3.9 +2.4 90 +1 +1 1021.3 773.8
00 17.08 штиль 0 50 км ясно +7.5 +5.3 86 +7 +9 1017.5 773.7 +3.0
03 17.08 СВ 3 50 км 4/3 1000 м
[Cu hum Ci fib]
+17.5 +2.9 38 +18 +24 1007.6 773.5
06 17.08 ЮЗ 3 50 км 8/8 600 м
[Sc]
+19.4 +3.1 34 +20 +22 1005.0 772.7
09 17.08 СЗ 5 50 км 8/5 600 м
[Cu med, cong Ac trans]
+20.2 +4.3 35 +21 +22 комфорт 1002.7 771.5
12 17.08 С 4 50 км 5/5 1000 м
[Cu med, cong]
+18.7 +4.0 38 +19 +19 1004.5 771.9 +21.9
15 17.08 ЮВ 1 н/о 4/0 2000 м
[Ac lent Ci fib]
+13.0 +3.3 52 +13 +13 1011.1 772.8
18 17.08 СЗ 3 н/о 3/0 2000 м
[Ac lent Ci fib]
+12.6 +3.6 54 +11 +11 1011.9 773.2
21 17.08 штиль 0 н/о 3/0 2000 м
[Ac lent Ci fib]
+11.2 +3.6 59 +11 +11 1013.4 773.3
00 18.08 штиль 0 50 км в посл. час дождь 8/5 1000 м
[Sc Ac lent]
+10.5 +6.7 77 +10 +10 1014.4 773.5 +9.7 0.2
03 18.08 З 1 50 км 9/0 2000 м
[As trans]
+14.7 +6.3 57 +15 +21 1010.9 773.9
06 18.08 З 2 50 км 9/9 600 м
[Cu Sc]
+19.1 -1.7 24 +20 +21 1005.5 772.4
09 18.08 С 4 50 км 9/9 600 м
[Cu Sc]
+20.2 -5.0 18 +20 +20 1003.2 771.4
12 18.08 В 4 10 км осадки на расстоянии 9/9 600 м
[Sc]
+15.2 -3.0 28 +14 +14 1008.6 772.0 +20.2 0.3
15 18.08 ЮЗ 2 н/о 9/9 600 м
[Sc]
+12.2 +7.5 73 +11 +11 1011.2 772.3
18 18.08 З 3 н/о 9/9 600 м
[Sc]
+12.1 +6.6 69 +11 +11 1011.0 772.1
21 18.08 З 3 н/о 6/4 600 м
[Sc Ac lent]
+9.2 +5.9 80 +7 +7 1013.6 771.9
00 19.08 СЗ 6 50 км 5/0 2000 м
[Ac trans Ci sp]
+11.0 +3.6 60 +8 +9 1013.2 773.0 +9.1
03 19.08 СЗ 9 50 км 5/3 600 м
[Sc Ac lent Ci fib]
+13.2 +2.4 48 +11 +11 1011.8 773.6
06 19.08 СЗ 14 50 км 5/5 600 м
[Sc]
+13.9 +1.9 44 +11 +11 1010.8 773.4
09 19.08 СЗ 9 50 км 8/8 600 м
[Sc]
+14.4 +0.1 38 +12 +12 1011.5 774.2

 

Местоположение метеостанции Баянбулаг (Монголия): широта 46.83 долгота 98.08 высота над уровнем моря 2255 м.

В архиве по умолчанию представлена погода в Баянбулаге за последнюю неделю. Архивные данные за месяц целиком и за предыдущие месяцы, начиная с января 2011 года, Вы можете получить, выбрав интересующий диапазон дат из раскрывающегося списка и нажав кнопку "Ввод!".


*Определитесь, кто Вы:
робот инопланетянин человек

Внимание! Время в таблицах - всемирное. Для получения местного времени необходимо прибавить поправку, которая равна 8 ч.

Смотрите также архив погоды в соседних городах и на ближайших метеорологических станциях:

Погода в Улиастае (Монголия) (138 км)
Погода в Алтае (Монголия) (148 км)
Погода в Галууте (Монголия) (157 км)
Погода в Тариате (Монголия) (178 км)
Погода в Эрдэни (Монголия) (188 км)
Погода в Тосонцэнгэле (Монголия) (212 км)
Погода в Баянхонгоре (Монголия) (214 км)
Погода в Амарбуйантайане (Монголия) (250 км)
Погода в Цэцэрлэге (Монголия) (265 км)
Погода в Цэцэн-Ууле (Монголия) (266 км)

Пояснения к столбцам:

Ветер - указаны скорость ветра в м/с - средняя за 10 мин, порывы в срок и между сроками (в фигурных скобках) и направление, откуда дует ветер: С - северный, СВ - северо-восточный, В - восточный, ЮВ - юго-восточный, Ю - южный, ЮЗ - юго-западный, З - западный, СЗ - северо-западный.
Видимость - горизонтальная дальность видимости в метрах или километрах. При видимости от 1 до 10 км при отсутствии осадков обычно наблюдается дымка, при ухудшении видимости до 1 км и менее - туман. В сухую погоду видимость может ухудшаться дымом, пылью или мглою.
Явления - указаны атмосферные явления, наблюдавшиеся в срок или в последний час перед сроком; фигурными скобками обозначены явления, наблюдавшиеся между сроками (за 1-3 часа до срока); квадратными скобками обозначены град или гололедные отложения с указанием их диаметра в мм.
Облачность - указаны через наклонную черту общая и нижняя облачность в баллах и высота нижней границы облаков в метрах; квадратными скобками обозначены формы облаков: Ci - перистые, Cs - перисто-слоистые, Cc - перисто-кучевые, Ac - высококучевые, As - высокослоистые, Sc - слоисто-кучевые, Ns - слоисто-дождевые, Cu - кучевые, Cb - кучево-дождевые. Подробнее классификацию облаков см. в Атласе облаков (PDF).
T - Температура воздуха - температура, измеренная на высоте 2 м над землей.
Td - Температура точки росы - температура, при понижении до которой содержащийся в воздухе водяной пар достигнет насыщения.
f - Относительная влажность воздуха - влажноcть воздуха, измеренная на высоте 2 м над землей.
Te - Эффективная температура - температура, которую ощущает одетый по сезону человек в тени. Характеристика душности погоды. При расчете учитывается влияние влажности воздуха и скорости ветра на теплоощущения человека.
Tes - Эффективная температура на солнце - температура, которую ощущает человек, с поправкой на солнечный нагрев. Характеристика знойности погоды. Зависит от высоты солнца над горизонтом, облачности и скорости ветра. Ночью, в пасмурную погоду, а также при ветре 12 м/с и более поправка равна нулю.
P - Атмосферное давление - приведенное к уровню моря атмосферное давление.
Po - Атмосферное давление - измеренное на уровне метеостанции атмосферное давление.
Tmin - Минимальная температура - минимум температуры воздуха на высоте 2 м над землей.
Tmax - Максимальная температура - максимум температуры воздуха на высоте 2 м над землей.
R - Количество осадков - Количество выпавших осадков за период времени, мм. При наведении курсора мыши на число - период времени, за который выпало указанное количество осадков.
R24 - Количество осадков - Количество выпавших осадков за 24 часа, мм.
S - Снежный покров - Высота снежного покрова, см. При наведении курсора мыши на число - состояние снежного покрова и степень покрытия местности в баллах.